Regional Weather Roundup
Issued by NWS Jackson, KY

Home | Current Version | Previous Version | Graphics & Text | Print | Product List | Glossary On
Versions: 1 2 3 4 5 6 7 8 9 10 11 12 13 14 15 16 17 18 19 20 21 22 23 24 25 26 27 28 29 30 31 32 33 34 35 36 37 38 39 40 41 42 43 44 45 46 47 48 49 50
000
ASUS43 KJKL 221910
RWRJKL

EAST KENTUCKY HOURLY WEATHER ROUNDUP
NATIONAL WEATHER SERVICE JACKSON KY
200 PM EST SUN JAN 22 2017

NOTE: "FAIR" INDICATES FEW OR NO CLOUDS BELOW 12,000 FEET WITH
NO SIGNIFICANT WEATHER AND/OR OBSTRUCTIONS TO VISIBILITY.

* THESE REPORTS ARE NOT UNDER NWS QUALITY CONTROL AND MAY NOT
  REPORT WEATHER SUCH AS PRECIPITATION AND FOG.

KYZ079-080-083-085-087-088-110-112-115-119-120-222000
...EASTERN KENTUCKY...

CITY           SKY/WX    TMP DP  RH WIND       PRES   REMARKS
JACKSON        CLOUDY    55  52  89 CALM      29.43F
LONDON         CLOUDY    57  51  80 CALM      29.39F
SOMERSET*      CLOUDY    54  54 100 CALM      29.40F
MONTICELLO*    CLOUDY    57  53  86 W10       29.41F
WILLIAMSBURG*  MOCLDY    59  55  88 SW7       29.39F
MIDDLESBORO*   CLOUDY    56  55  96 CALM      29.40F
HARLAN APT*    CLOUDY    55  50  82 CALM      29.43F
PIKE CO APT*   CLOUDY    55  54  95 NE5       29.44F
BIG SANDY APT* CLOUDY    57  54  89 SE5       29.45S
MOREHEAD APT*  CLOUDY    59  50  72 VRB6G12   29.45F
ASHLAND*       CLOUDY    61  54  77 E5        29.44F
$$

KYZ035-036-041-042-044-050-067-078-099-222000
...CENTRAL KENTUCKY...

CITY           SKY/WX    TMP DP  RH WIND       PRES   REMARKS
MT STERLING*   CLOUDY    55  50  82 E7        29.45F
FLEMING/MASON* CLOUDY    58  50  75 E9        29.45F
DANVILLE*      CLOUDY    55  52  88 N3        29.43F
LEXINGTON      LGT RAIN  57  50  77 NE7       29.43F
FRANKFORT      CLOUDY    58  49  72 E8        29.43F
LOUISVILLE     CLOUDY    60  50  69 W5        29.43F
LEBANON*       CLOUDY    55  54  94 NW5       29.42F
GLASGOW*       CLOUDY    62  53  72 N5        29.39F
BOWLING GREEN  CLOUDY    64  54  69 NE7       29.38F
$$

KYZ091>093-OHZ055-061-077-WVZ005-015-034-035-042-222000
...SOUTHERN OHIO/WEST VIRGINIA...

CITY           SKY/WX    TMP DP  RH WIND       PRES   REMARKS
COVINGTON      CLOUDY    61  52  72 E10       29.45F
COLUMBUS       CLOUDY    63  47  55 E8        29.49F
DAYTON         CLOUDY    61  49  64 NE10      29.49F
WILMINGTON     CLOUDY    60  50  69 E12       29.47F
HUNTINGTON     CLOUDY    58  50  75 NE8       29.45F
CHARLESTON     CLOUDY    59  51  75 NE7       29.47F
PINEVILLE*     CLOUDY    57  48  72 MISG      29.53
BECKLEY        LGT RAIN  51  48  89 SE12      29.51F
BLUEFIELD      CLOUDY    51  47  86 VRB7      29.51F
LOGAN CO APT*  CLOUDY    57  54  88 CALM      29.46F
$$

VAZ002-007-008-TNZ017-027-036-066-071-222000
...SOUTHWEST VIRGINIA/EAST TENNESSEE...

CITY           SKY/WX    TMP DP  RH WIND       PRES   REMARKS
WISE*          PTSUNNY   59  46  63 S6        29.46F
JONESVILLE*      N/A     59  54  82 E7        29.44F
ABINGDON*      CLOUDY    64  53  67 E8        29.44F
BRISTOL        PTSUNNY   69  50  50 CALM      29.40F
MORRISTOWN*    CLOUDY    63  54  72 N7        29.38F
SEVIERVILLE*   MOCLDY    64  52  63 NE5       29.37F
KNOXVILLE      CLOUDY    67  52  58 SW10      29.35F
LAFOLLETTE*    MOCLDY    59  55  88 NE6       29.42F
OAK RIDGE      CLOUDY    65  53  65 W7        29.38F
CROSSVILLE     CLOUDY    59  51  75 VRB3      29.38F
NASHVILLE      PTSUNNY   63  53  70 NE8       29.34F
$$

...KEY TO REMARKS...
VSB - VISIBILITY IN MILES
WCI - WIND CHILL INDEX
HX  - HEAT INDEX

$$



USA.gov is the U.S. government's official web portal to all federal, state and local government web resources and services.